Location: Focicchia
(42.2496°N, 9.2935°E)
Time: 11:48:44
(UTC+00:00)

X-37B - Visible Passes

Search period start: 30 July 2021 00:00
Search period end: 09 August 2021 00:00
Orbit: 383 x 392 km, 45.0° (Epoch: 01 July)

Date Brightness Start Highest point End Pass type
(mag) Time Alt. Az. Time Alt. Az. Time Alt. Az.
31 Jul 2.6 02:54:45 14° S 02:56:14 19° SE 02:58:35 10° E visible
01 Aug 0.9 03:31:15 11° SW 03:34:14 56° SSE 03:37:23 10° ENE visible
02 Aug 1.6 02:35:26 30° S 02:35:57 33° SSE 02:38:52 10° E visible
03 Aug 3.4 01:39:34 13° ESE 01:39:34 13° ESE 01:40:06 10° E visible
03 Aug 0.5 03:11:51 18° WSW 03:14:05 89° SE 03:17:18 10° ENE visible
04 Aug 0.9 02:15:59 54° SE 02:15:59 54° SE 02:18:53 10° ENE visible
05 Aug 3.6 01:20:05 12° E 01:20:05 12° E 01:20:23 10° E visible
05 Aug 0.8 02:52:22 25° W 02:54:00 65° NNW 02:57:11 10° ENE visible
06 Aug 1.6 01:56:29 45° ENE 01:56:29 45° ENE 01:58:49 10° ENE visible
06 Aug 1.4 03:29:18 10° WNW 03:32:25 48° N 03:35:33 10° ENE visible
07 Aug 1.2 02:32:54 34° WNW 02:33:58 52° N 02:37:06 10° ENE visible
08 Aug 2.7 01:37:06 26° ENE 01:37:06 26° ENE 01:38:43 10° ENE visible
08 Aug 1.4 03:09:23 11° WNW 03:12:24 50° N 03:15:32 10° E visible
